User: anonymous   Login
Location: Unspecified
(0.0000°N, 0.0000°E)
Time: 01:08:48
(UTC+00:00)
Language:

STARLINK-33875 - Orbit

View from above orbital plane
View from above orbital plane
View from above satellite
View from above satellite

Ground track
Ground track

The orbit is defined by the following mean orbital elements,

1 63789U          26145.51541508 +.00000000 +00000-0 +46637-3 0 00002
2 63789  43.0015 338.4874 0001168 280.9262  79.1458 15.27593979    01
Epoch (UTC): 25 May 2026 12:22:11
Eccentricity: 0.0001168
inclination: 43.0015°
perigee height: 482 km
apogee height: 484 km
right ascension of ascending node: 338.4874°
argument of perigee: 280.9262°
revolutions per day: 15.27593979
mean anomaly at epoch: 79.1458°

The dashed part of the orbit path shows where the satellite is in the earth's shadow,  

DLR